Location: Newark
(42.9858°N, 0.6717°E)
Time: 11:16:00
(UTC+00:00)

S-56A Canister/Altair - Pass Details

Date: 28 November 2019
Orbit: 633 x 2500 km, 38.9° (Epoch: 09 December)

Event Time Altitude Azimuth Distance (km) Brightness Sun altitude
Rises 12:20:53 0° 213° (SSW) 6,164 13.2 25.2°
Reaches altitude 10° 12:25:26 10° 206° (SSW) 5,139 13.3 25.0°
Maximum altitude 12:38:09 37° 147° (SSE) 3,121 11.5 24.6°
Drops below altitude 10° 12:48:25 10° 87° (E) 4,168 11.2 24.1°
Sets 12:51:39 0° 79° (ENE) 4,915 11.4 23.9°
